Time,TemperatureF,DewpointF,PressureIn,WindDirection,WindDirectionDegrees,WindSpeedMPH,WindSpeedGustMPH,Humidity,HourlyPrecipIn,Conditions,Clouds,dailyrainin,SoftwareType,DateUTC
2013-02-21 00:01:00,36.0,27.0,29.41,WNW,285,5.0,8.0,69,0.00,,,0.00,,2013-02-21 07:01:00,
2013-02-21 00:11:00,35.0,26.0,29.41,WNW,288,3.0,8.0,68,0.00,,,0.00,,2013-02-21 07:11:00,
2013-02-21 00:21:00,35.0,26.0,29.41,WNW,288,3.0,8.0,68,0.00,,,0.00,,2013-02-21 07:21:00,
2013-02-21 00:32:00,34.0,25.0,29.41,WSW,256,2.0,5.0,69,0.00,,,0.00,,2013-02-21 07:32:00,
2013-02-21 00:42:00,35.0,25.0,29.41,WSW,248,1.0,2.0,67,0.00,,,0.00,,2013-02-21 07:42:00,
2013-02-21 00:52:00,35.0,25.0,29.41,WSW,248,1.0,2.0,67,0.00,,,0.00,,2013-02-21 07:52:00,
2013-02-21 01:01:00,35.0,25.0,29.41,South,180,1.0,1.0,66,0.00,,,0.00,,2013-02-21 08:01:00,
2013-02-21 01:11:00,35.0,24.0,29.42,SSE,158,1.0,3.0,65,0.00,,,0.00,,2013-02-21 08:11:00,
2013-02-21 01:21:00,35.0,24.0,29.42,SSE,158,1.0,3.0,65,0.00,,,0.00,,2013-02-21 08:21:00,
2013-02-21 01:31:00,35.0,25.0,29.43,SSE,160,6.0,8.0,67,0.00,,,0.00,,2013-02-21 08:31:00,
2013-02-21 01:41:00,35.0,25.0,29.43,SSE,160,6.0,8.0,67,0.00,,,0.00,,2013-02-21 08:41:00,
2013-02-21 01:52:00,34.0,25.0,29.43,South,184,6.0,8.0,70,0.00,,,0.00,,2013-02-21 08:52:00,
2013-02-21 02:01:00,32.0,24.0,29.44,South,187,3.0,7.0,73,0.00,,,0.00,,2013-02-21 09:01:00,
2013-02-21 02:11:00,32.0,24.0,29.44,South,187,3.0,7.0,73,0.00,,,0.00,,2013-02-21 09:11:00,
2013-02-21 02:22:00,32.0,25.0,29.43,South,178,3.0,6.0,74,0.00,,,0.00,,2013-02-21 09:22:00,
2013-02-21 02:31:00,31.0,24.0,29.43,SSE,167,2.0,7.0,75,0.00,,,0.00,,2013-02-21 09:31:00,
2013-02-21 02:41:00,31.0,24.0,29.44,SE,133,2.0,4.0,76,0.00,,,0.00,,2013-02-21 09:41:00,
2013-02-21 02:52:00,31.0,24.0,29.44,SE,133,2.0,4.0,76,0.00,,,0.00,,2013-02-21 09:52:00,
2013-02-21 03:01:00,31.0,24.0,29.44,ESE,107,2.0,4.0,76,0.00,,,0.00,,2013-02-21 10:01:00,
2013-02-21 03:11:00,31.0,24.0,29.44,ESE,107,2.0,4.0,76,0.00,,,0.00,,2013-02-21 10:11:00,
2013-02-21 03:21:00,30.0,23.0,29.44,East,96,3.0,5.0,76,0.00,,,0.00,,2013-02-21 10:21:00,
2013-02-21 03:31:00,30.0,24.0,29.45,ESE,120,3.0,4.0,77,0.00,,,0.00,,2013-02-21 10:31:00,
2013-02-21 03:41:00,30.0,24.0,29.45,ESE,120,3.0,4.0,77,0.00,,,0.00,,2013-02-21 10:41:00,
2013-02-21 03:51:00,29.0,23.0,29.45,ESE,108,4.0,7.0,79,0.00,,,0.00,,2013-02-21 10:51:00,
2013-02-21 04:01:00,29.0,23.0,29.46,East,98,4.0,5.0,79,0.00,,,0.00,,2013-02-21 11:01:00,
2013-02-21 04:11:00,29.0,23.0,29.46,East,98,4.0,5.0,79,0.00,,,0.00,,2013-02-21 11:11:00,
2013-02-21 04:21:00,29.0,23.0,29.47,ESE,120,1.0,5.0,79,0.00,,,0.00,,2013-02-21 11:21:00,
2013-02-21 04:31:00,29.0,23.0,29.48,SE,135,0.0,3.0,78,0.00,,,0.00,,2013-02-21 11:31:00,
2013-02-21 04:41:00,29.0,23.0,29.48,SE,135,0.0,3.0,78,0.00,,,0.00,,2013-02-21 11:41:00,
2013-02-21 04:52:00,29.0,23.0,29.49,SE,135,1.0,3.0,78,0.00,,,0.00,,2013-02-21 11:52:00,
2013-02-21 05:01:00,29.0,23.0,29.49,SE,135,1.0,3.0,79,0.00,,,0.00,,2013-02-21 12:01:00,
2013-02-21 05:11:00,29.0,23.0,29.49,SE,135,1.0,3.0,79,0.00,,,0.00,,2013-02-21 12:11:00,
2013-02-21 05:21:00,29.0,23.0,29.50,ESE,117,1.0,4.0,79,0.00,,,0.00,,2013-02-21 12:21:00,
2013-02-21 05:32:00,30.0,24.0,29.50,ESE,107,4.0,5.0,79,0.00,,,0.00,,2013-02-21 12:32:00,
2013-02-21 05:42:00,29.0,23.0,29.51,SE,131,2.0,3.0,79,0.00,,,0.00,,2013-02-21 12:42:00,
2013-02-21 05:53:00,29.0,23.0,29.51,SE,131,2.0,3.0,79,0.00,,,0.00,,2013-02-21 12:53:00,
2013-02-21 06:01:00,29.0,23.0,29.52,SE,132,2.0,4.0,79,0.00,,,0.00,,2013-02-21 13:01:00,
2013-02-21 06:12:00,29.0,23.0,29.52,SE,132,2.0,4.0,79,0.00,,,0.00,,2013-02-21 13:12:00,
2013-02-21 06:22:00,29.0,23.0,29.53,SE,138,2.0,4.0,78,0.00,,,0.00,,2013-02-21 13:22:00,
2013-02-21 06:32:00,29.0,23.0,29.53,ESE,121,2.0,3.0,77,0.00,,,0.00,,2013-02-21 13:32:00,
2013-02-21 06:41:00,30.0,24.0,29.54,ESE,103,2.0,4.0,77,0.00,,,0.00,,2013-02-21 13:41:00,
2013-02-21 06:52:00,30.0,24.0,29.54,ESE,103,2.0,4.0,77,0.00,,,0.00,,2013-02-21 13:52:00,
2013-02-21 07:02:00,30.0,24.0,29.55,ESE,118,2.0,5.0,77,0.00,,,0.00,,2013-02-21 14:02:00,
2013-02-21 07:11:00,30.0,24.0,29.55,ESE,118,2.0,5.0,77,0.00,,,0.00,,2013-02-21 14:11:00,
2013-02-21 07:21:00,30.0,24.0,29.55,East,96,4.0,6.0,77,0.00,,,0.00,,2013-02-21 14:21:00,
2013-02-21 07:32:00,30.0,23.0,29.56,ESE,121,2.0,5.0,76,0.00,,,0.00,,2013-02-21 14:32:00,
2013-02-21 07:41:00,30.0,23.0,29.57,SE,125,2.0,4.0,76,0.00,,,0.00,,2013-02-21 14:41:00,
2013-02-21 07:52:00,30.0,23.0,29.57,SE,125,2.0,4.0,76,0.00,,,0.00,,2013-02-21 14:52:00,
2013-02-21 08:01:00,30.0,23.0,29.58,SE,127,2.0,5.0,76,0.00,,,0.00,,2013-02-21 15:01:00,
2013-02-21 08:12:00,30.0,23.0,29.58,SE,127,2.0,5.0,76,0.00,,,0.00,,2013-02-21 15:12:00,
2013-02-21 08:21:00,31.0,24.0,29.59,SE,125,3.0,5.0,76,0.00,,,0.00,,2013-02-21 15:21:00,
2013-02-21 08:32:00,31.0,24.0,29.59,SE,128,2.0,4.0,75,0.00,,,0.00,,2013-02-21 15:32:00,
2013-02-21 08:42:00,31.0,24.0,29.59,SE,128,2.0,4.0,75,0.00,,,0.00,,2013-02-21 15:42:00,
2013-02-21 08:52:00,32.0,24.0,29.61,ESE,123,4.0,5.0,73,0.00,,,0.00,,2013-02-21 15:52:00,
2013-02-21 09:01:00,32.0,24.0,29.61,SE,137,3.0,5.0,72,0.00,,,0.00,,2013-02-21 16:01:00,
2013-02-21 09:12:00,33.0,25.0,29.61,ESE,123,3.0,5.0,71,0.00,,,0.00,,2013-02-21 16:12:00,
2013-02-21 09:21:00,33.0,25.0,29.61,ESE,123,3.0,5.0,71,0.00,,,0.00,,2013-02-21 16:21:00,
2013-02-21 09:32:00,34.0,25.0,29.61,SE,131,4.0,7.0,70,0.00,,,0.00,,2013-02-21 16:32:00,
2013-02-21 09:42:00,34.0,25.0,29.62,SE,131,3.0,6.0,68,0.00,,,0.00,,2013-02-21 16:42:00,
2013-02-21 09:52:00,34.0,25.0,29.62,SE,131,3.0,6.0,68,0.00,,,0.00,,2013-02-21 16:52:00,
2013-02-21 10:01:00,35.0,26.0,29.62,ESE,123,5.0,7.0,68,0.00,,,0.00,,2013-02-21 17:01:00,
2013-02-21 10:11:00,35.0,25.0,29.62,SE,125,4.0,7.0,67,0.00,,,0.00,,2013-02-21 17:11:00,
2013-02-21 10:21:00,35.0,25.0,29.62,SE,125,4.0,7.0,67,0.00,,,0.00,,2013-02-21 17:21:00,
2013-02-21 10:32:00,37.0,27.0,29.62,SSE,151,3.0,5.0,66,0.00,,,0.00,,2013-02-21 17:32:00,
2013-02-21 10:42:00,37.0,27.0,29.62,SSE,151,3.0,5.0,66,0.00,,,0.00,,2013-02-21 17:42:00,
2013-02-21 10:52:00,38.0,27.0,29.62,SSE,156,4.0,5.0,64,0.00,,,0.00,,2013-02-21 17:52:00,
2013-02-21 11:01:00,38.0,27.0,29.63,SSE,158,4.0,7.0,63,0.00,,,0.00,,2013-02-21 18:01:00,
2013-02-21 11:11:00,38.0,27.0,29.63,SSE,158,4.0,7.0,63,0.00,,,0.00,,2013-02-21 18:11:00,
2013-02-21 11:22:00,39.0,27.0,29.62,SE,124,4.0,7.0,61,0.00,,,0.00,,2013-02-21 18:22:00,
2013-02-21 11:31:00,39.0,27.0,29.61,ESE,106,4.0,8.0,61,0.01,,,0.01,,2013-02-21 18:31:00,
2013-02-21 11:42:00,39.0,27.0,29.61,ESE,106,4.0,8.0,61,0.01,,,0.01,,2013-02-21 18:42:00,
2013-02-21 11:52:00,39.0,27.0,29.61,SE,133,6.0,9.0,62,0.02,,,0.02,,2013-02-21 18:52:00,
2013-02-21 12:01:00,39.0,27.0,29.61,SSE,149,4.0,7.0,61,0.03,,,0.03,,2013-02-21 19:01:00,
2013-02-21 12:12:00,39.0,27.0,29.61,SSE,149,4.0,7.0,61,0.03,,,0.03,,2013-02-21 19:12:00,
2013-02-21 12:21:00,40.0,27.0,29.61,SW,226,5.0,6.0,59,0.03,,,0.04,,2013-02-21 19:21:00,
2013-02-21 12:31:00,42.0,27.0,29.60,SSW,210,4.0,7.0,56,0.04,,,0.05,,2013-02-21 19:31:00,
2013-02-21 12:41:00,42.0,27.0,29.60,SSW,210,4.0,7.0,56,0.04,,,0.05,,2013-02-21 19:41:00,
2013-02-21 12:52:00,43.0,28.0,29.59,SW,217,7.0,9.0,55,0.05,,,0.07,,2013-02-21 19:52:00,
2013-02-21 13:01:00,43.0,28.0,29.58,SSW,209,4.0,11.0,54,0.05,,,0.08,,2013-02-21 20:01:00,
2013-02-21 13:11:00,44.0,28.0,29.58,WSW,255,4.0,9.0,52,0.05,,,0.09,,2013-02-21 20:11:00,
2013-02-21 13:21:00,44.0,28.0,29.58,WSW,255,4.0,9.0,52,0.05,,,0.09,,2013-02-21 20:21:00,
2013-02-21 13:31:00,45.0,25.0,29.57,West,279,3.0,11.0,46,0.04,,,0.10,,2013-02-21 20:31:00,
2013-02-21 13:41:00,45.0,25.0,29.57,West,279,3.0,11.0,46,0.04,,,0.10,,2013-02-21 20:41:00,
2013-02-21 13:53:00,45.0,25.0,29.56,WSW,256,7.0,9.0,45,0.03,,,0.10,,2013-02-21 20:53:00,
2013-02-21 14:02:00,45.0,25.0,29.57,West,279,2.0,5.0,45,0.02,,,0.10,,2013-02-21 21:02:00,
2013-02-21 14:11:00,46.0,27.0,29.57,NE,39,2.0,7.0,48,0.01,,,0.10,,2013-02-21 21:11:00,
2013-02-21 14:21:00,46.0,27.0,29.57,NE,39,2.0,7.0,48,0.01,,,0.10,,2013-02-21 21:21:00,
2013-02-21 14:31:00,45.0,25.0,29.57,North,8,3.0,5.0,46,0.00,,,0.10,,2013-02-21 21:31:00,
2013-02-21 14:42:00,45.0,25.0,29.57,NNW,333,2.0,5.0,46,0.00,,,0.10,,2013-02-21 21:42:00,
2013-02-21 14:51:00,45.0,25.0,29.57,NNW,333,2.0,5.0,46,0.00,,,0.10,,2013-02-21 21:51:00,
2013-02-21 15:01:00,46.0,23.0,29.57,West,277,8.0,13.0,40,0.00,,,0.10,,2013-02-21 22:01:00,
2013-02-21 15:11:00,46.0,23.0,29.57,West,277,8.0,13.0,40,0.00,,,0.10,,2013-02-21 22:11:00,
2013-02-21 15:21:00,46.0,20.0,29.57,NW,313,10.0,13.0,35,0.00,,,0.10,,2013-02-21 22:21:00,
2013-02-21 15:31:00,46.0,20.0,29.57,NW,318,8.0,11.0,35,0.00,,,0.10,,2013-02-21 22:31:00,
2013-02-21 15:42:00,47.0,22.0,29.57,WNW,288,9.0,13.0,37,0.00,,,0.10,,2013-02-21 22:42:00,
2013-02-21 15:52:00,47.0,22.0,29.57,WNW,288,9.0,13.0,37,0.00,,,0.10,,2013-02-21 22:52:00,
2013-02-21 16:01:00,47.0,23.0,29.58,WSW,255,6.0,9.0,38,0.00,,,0.10,,2013-02-21 23:01:00,
2013-02-21 16:11:00,47.0,23.0,29.58,WSW,255,6.0,9.0,38,0.00,,,0.10,,2013-02-21 23:11:00,
2013-02-21 16:21:00,46.0,23.0,29.58,SW,224,8.0,13.0,40,0.00,,,0.10,,2013-02-21 23:21:00,
2013-02-21 16:31:00,45.0,23.0,29.58,SW,223,6.0,10.0,42,0.00,,,0.10,,2013-02-21 23:31:00,
2013-02-21 16:41:00,45.0,23.0,29.58,SW,223,6.0,10.0,42,0.00,,,0.10,,2013-02-21 23:41:00,
2013-02-21 16:52:00,45.0,23.0,29.58,WSW,246,8.0,11.0,42,0.00,,,0.10,,2013-02-21 23:52:00,
2013-02-21 17:01:00,46.0,22.0,29.58,West,273,6.0,12.0,39,0.00,,,0.10,,2013-02-22 00:01:00,
2013-02-21 17:11:00,46.0,22.0,29.58,West,273,6.0,12.0,39,0.00,,,0.10,,2013-02-22 00:11:00,
2013-02-21 17:21:00,45.0,23.0,29.58,SW,226,8.0,12.0,42,0.00,,,0.10,,2013-02-22 00:21:00,
2013-02-21 17:31:00,44.0,23.0,29.59,WSW,240,7.0,12.0,43,0.00,,,0.10,,2013-02-22 00:31:00,
2013-02-21 17:41:00,44.0,23.0,29.59,WSW,240,7.0,12.0,43,0.00,,,0.10,,2013-02-22 00:41:00,
2013-02-21 17:52:00,43.0,23.0,29.59,WSW,244,9.0,14.0,44,0.00,,,0.10,,2013-02-22 00:52:00,
2013-02-21 18:01:00,42.0,22.0,29.59,WSW,253,8.0,11.0,44,0.00,,,0.10,,2013-02-22 01:01:00,
2013-02-21 18:11:00,42.0,22.0,29.59,WSW,253,8.0,11.0,44,0.00,,,0.10,,2013-02-22 01:11:00,
2013-02-21 18:21:00,42.0,22.0,29.60,SW,230,5.0,11.0,45,0.00,,,0.10,,2013-02-22 01:21:00,
2013-02-21 18:32:00,41.0,22.0,29.61,WSW,239,6.0,11.0,46,0.00,,,0.10,,2013-02-22 01:32:00,
2013-02-21 18:42:00,41.0,22.0,29.61,WSW,239,6.0,11.0,46,0.00,,,0.10,,2013-02-22 01:42:00,
2013-02-21 18:52:00,41.0,22.0,29.63,SW,224,7.0,9.0,46,0.00,,,0.10,,2013-02-22 01:52:00,
2013-02-21 19:02:00,41.0,22.0,29.64,West,271,5.0,10.0,46,0.00,,,0.10,,2013-02-22 02:02:00,
2013-02-21 19:11:00,40.0,21.0,29.64,WSW,255,6.0,10.0,46,0.00,,,0.10,,2013-02-22 02:11:00,
2013-02-21 19:21:00,40.0,21.0,29.64,WSW,255,6.0,10.0,46,0.00,,,0.10,,2013-02-22 02:21:00,
2013-02-21 19:31:00,40.0,21.0,29.65,WSW,244,4.0,9.0,47,0.00,,,0.10,,2013-02-22 02:31:00,
2013-02-21 19:42:00,39.0,20.0,29.65,WSW,244,6.0,10.0,46,0.00,,,0.10,,2013-02-22 02:42:00,
2013-02-21 19:52:00,39.0,20.0,29.65,WSW,244,6.0,10.0,46,0.00,,,0.10,,2013-02-22 02:52:00,
2013-02-21 20:01:00,39.0,20.0,29.66,WSW,254,6.0,9.0,46,0.00,,,0.10,,2013-02-22 03:01:00,
2013-02-21 20:11:00,39.0,20.0,29.66,WSW,253,5.0,8.0,47,0.00,,,0.10,,2013-02-22 03:11:00,
2013-02-21 20:21:00,39.0,20.0,29.66,WSW,253,5.0,8.0,47,0.00,,,0.10,,2013-02-22 03:21:00,
2013-02-21 20:31:00,38.0,20.0,29.67,WSW,244,2.0,7.0,47,0.00,,,0.10,,2013-02-22 03:31:00,
2013-02-21 20:41:00,38.0,20.0,29.67,WSW,244,2.0,7.0,47,0.00,,,0.10,,2013-02-22 03:41:00,
2013-02-21 20:51:00,38.0,20.0,29.67,WSW,256,2.0,8.0,48,0.00,,,0.10,,2013-02-22 03:51:00,
2013-02-21 21:01:00,37.0,19.0,29.68,WSW,256,3.0,5.0,48,0.00,,,0.10,,2013-02-22 04:01:00,
2013-02-21 21:11:00,37.0,20.0,29.68,West,262,2.0,6.0,49,0.00,,,0.10,,2013-02-22 04:11:00,
2013-02-21 21:21:00,37.0,20.0,29.68,West,262,2.0,6.0,49,0.00,,,0.10,,2013-02-22 04:21:00,
2013-02-21 21:32:00,37.0,20.0,29.68,West,280,1.0,3.0,49,0.00,,,0.10,,2013-02-22 04:32:00,
2013-02-21 21:42:00,37.0,20.0,29.68,WNW,301,2.0,5.0,50,0.00,,,0.10,,2013-02-22 04:42:00,
2013-02-21 21:52:00,37.0,20.0,29.68,WNW,301,2.0,5.0,50,0.00,,,0.10,,2013-02-22 04:52:00,
2013-02-21 22:01:00,37.0,20.0,29.68,WSW,256,2.0,4.0,50,0.00,,,0.10,,2013-02-22 05:01:00,
2013-02-21 22:12:00,37.0,20.0,29.68,WSW,256,2.0,4.0,50,0.00,,,0.10,,2013-02-22 05:12:00,
2013-02-21 22:22:00,36.0,19.0,29.68,NNW,334,4.0,5.0,50,0.00,,,0.10,,2013-02-22 05:22:00,
2013-02-21 22:32:00,36.0,19.0,29.68,NNW,329,3.0,7.0,50,0.00,,,0.10,,2013-02-22 05:32:00,
2013-02-21 22:41:00,36.0,19.0,29.68,West,272,3.0,5.0,50,0.00,,,0.10,,2013-02-22 05:41:00,
2013-02-21 22:52:00,36.0,19.0,29.68,West,272,3.0,5.0,50,0.00,,,0.10,,2013-02-22 05:52:00,
2013-02-21 23:01:00,36.0,19.0,29.69,WSW,240,2.0,3.0,50,0.00,,,0.10,,2013-02-22 06:01:00,
2013-02-21 23:11:00,35.0,19.0,29.68,SE,135,1.0,1.0,51,0.00,,,0.10,,2013-02-22 06:11:00,
2013-02-21 23:21:00,35.0,19.0,29.68,SE,135,1.0,1.0,51,0.00,,,0.10,,2013-02-22 06:21:00,
2013-02-21 23:31:00,34.0,18.0,29.68,SE,135,0.0,1.0,52,0.00,,,0.10,,2013-02-22 06:31:00,
2013-02-21 23:42:00,34.0,18.0,29.68,SE,135,0.0,1.0,52,0.00,,,0.10,,2013-02-22 06:42:00,
2013-02-21 23:52:00,34.0,19.0,29.69,ESE,111,2.0,2.0,54,0.00,,,0.10,,2013-02-22 06:52:00,